Volver al catálogo

STARLINK-36414

ActivoComunicacionesVLEO
NORAD 67468·PAYLOAD·🇺🇸 United States

Lanzado Jan 14, 2026 desde Cape Canaveral Space Force Station

Loading…

Próximos Pases (próximas 24 horas)

TLE

ActualizadoSource: CelesTrak SupGP

Época: Sep 14, 2026, 22:39 UTC

1 67468C 26008Z   26257.94423611  .00006419  00000+0  23248-3 0  2577
2 67468  42.9998 216.1165 0001287 257.5270 313.5804 15.27577653    15

Sigue STARLINK-36414 en tiempo real con AllMySat

Download on the App Store